Trieste, Italy

4:11 PM CET on November 19, 2017 (GMT +0100)
Trieste

Weather History for LIVT - October, 2012

Change the Weather History Date:

Monday, October 22, 2012

  Actual Average Record
Temperature  
Mean Temperature 66 °F -  
Max Temperature 75 °F 57 °F 75 °F (2012)
Min Temperature 57 °F 48 °F 46 °F (2010)
Cooling Degree Days 1    
Growing Degree Days 16 (Base 50)    
Moisture  
Dew Point 50 °F    
Average Humidity 55    
Maximum Humidity 94    
Minimum Humidity 25    
Precipitation  
Precipitation 0.00 in 0.14 in - ()
Sea Level Pressure  
Sea Level Pressure 30.05 in    
Wind  
Wind Speed 8 mph ()    
Max Wind Speed 21 mph    
Max Gust Speed 43 mph    
Visibility 5.8 miles    
Events      
Averages and records for this station are not official NWS values.
T = Trace of Precipitation, MM = Missing Value Source: Averaged Metar Reports

Daily Weather History Graph

Daily Weather History Graph

Search for Another Location

Airport or City:

Trip Planner

Search our weather history database for the weather conditions in past years. The results will help you decide how hot, cold, wet, or windy it might be!

Date:

Astronomy

Oct. 22, 2012 Rise Set
Actual Time 7:31 AM CEST 6:06 PM CEST
Civil Twilight 7:00 AM CEST 6:37 PM CEST
Nautical Twilight 6:26 AM CEST 7:11 PM CEST
Astronomical Twilight 5:51 AM CEST 7:46 PM CEST
Moon 2:23 PM CEST (10/22) No Moon Set
Length of Visible Light 11h 36m
Length of Day
10h 35m
First Quarter, 53% of the Moon is Illuminated
Oct 22
First Quarter
Oct 29
Full
Nov 7
Last Quarter
Nov 13
New
Nov 20
First Quarter

Hourly Weather History & Observations

Time (CEST) Temp. Dew Point Humidity Pressure Visibility Wind Dir Wind Speed Gust Speed Precip Events Conditions
12:55 AM 57.2 °F 53.6 °F 88% 30.04 in - ENE 1.2 mph - N/A   Clear
1:55 AM 57.2 °F 55.4 °F 94% 30.04 in - Variable 1.2 mph - N/A   Clear
2:55 AM 64.4 °F 51.8 °F 64% 30.04 in - East 8.1 mph - N/A   Clear
3:55 AM 64.4 °F 51.8 °F 64% 30.04 in - ENE 18.4 mph 32.2 mph N/A   Clear
4:55 AM 64.4 °F 50.0 °F 59% 30.04 in - ENE 15.0 mph 31.1 mph N/A   Clear
7:55 AM 64.4 °F 50.0 °F 59% 30.04 in - ENE 18.4 mph 36.8 mph N/A   Clear
8:00 AM 64 °F 49 °F 49% 30.04 in 6 mi ENE 18.4 mph - -  
8:55 AM 64.4 °F 50.0 °F 59% 30.04 in - ENE 5.8 mph 17.3 mph N/A   Clear
9:55 AM 68.0 °F 50.0 °F 52% 30.06 in - East 4.6 mph - N/A   Clear
11:55 AM 73.4 °F 48.2 °F 41% 30.06 in - East 13.8 mph 27.6 mph N/A   Clear
12:55 PM 75.2 °F 48.2 °F 38% 30.04 in - ENE 10.4 mph - N/A   Clear
2:00 PM 73 °F 61 °F 57% 30.05 in 6 mi SW 3.5 mph - -  
2:55 PM 71.6 °F 59.0 °F 64% 30.04 in - NW 2.3 mph - N/A   Clear
3:55 PM 71.6 °F 60.8 °F 69% 30.04 in - West 2.3 mph - N/A   Clear
4:55 PM 71.6 °F 59.0 °F 64% 30.04 in - West 1.2 mph - N/A   Clear
5:55 PM 66.2 °F 60.8 °F 83% 30.04 in 5.0 mi Calm Calm - N/A   Unknown
7:55 PM 68.0 °F 41.0 °F 37% 30.04 in - East 11.5 mph 32.2 mph N/A   Clear
8:00 PM 68 °F 40 °F 25% 30.06 in 6 mi East 11.5 mph - -  
8:55 PM 68.0 °F 41.0 °F 37% 30.04 in - East 15.0 mph 31.1 mph N/A   Clear
9:55 PM 68.0 °F 37.4 °F 33% 30.06 in - ENE 20.7 mph 34.5 mph N/A   Clear
10:55 PM 64.4 °F 39.2 °F 40% 30.04 in - NE 19.6 mph 42.6 mph N/A   Clear
11:55 PM 64.4 °F 41.0 °F 42% 30.06 in - East 10.4 mph 35.7 mph N/A   Clear